Location: ??????
(33.3472°N, 35.4764°E)
Time: 00:23:48
(UTC+00:00)

Cosmos 1486 Rocket - Pass Details

Date: 21 August 2019
Orbit: 758 x 784 km, 74.1° (Epoch: 17 October)

Event Time Altitude Azimuth Distance (km) Brightness Sun altitude
Rises 01:54:18 0° 345° (NNW) 3,221 7.4 -14.5°
Reaches altitude 10° 01:56:41 10° 347° (NNW) 2,294 6.6 -14.1°
Maximum altitude 02:01:53 77° 73° (ENE) 786 4.2 -13.1°
Drops below altitude 10° 02:07:05 10° 159° (SSE) 2,292 6.4 -12.1°
Sets 02:09:27 0° 161° (SSE) 3,219 7.2 -11.7°
